Miscellaneous Local Product
Issued by NWS North Platte, NE

Home | Current Version | Previous Version | Graphics & Text | Print | Product List | Glossary On
Versions: 1 2 3 4 5 6 7 8 9 10 11 12 13 14 15 16 17 18 19 20 21 22 23 24 25 26 27 28 29 30 31 32 33 34 35 36 37 38 39 40 41 42 43 44 45 46 47 48 49 50
000
AXUS43 KLBF 010710
MISLBF


WESTERN AND NORTH CENTRAL NEBRASKA HOURLY WEATHER ROUNDUP
NATIONAL WEATHER SERVICE NORTH PLATTE NE
200 AM CDT SAT NOV 01 2014

***STATIONS NOT REPORTING VARIABLES SUCH AS SKY/WEATHER OR
PRESSURE ARE PROVIDED BY THE NEBRASKA DEPARTMENT OF
ROADS...RAWS...AND APRS NETWORKS...AND ARE NOT UNDER
NATIONAL WEATHER SERVICE QUALITY CONTROL***

...OBSERVATIONS IN AND NEAR THE EASTERN PANHANDLE OF NEBRASKA...

CITY           SKY/WX    TMP DP  RH WIND       PRES   REMARKS
PINE RIDGE     CLEAR     40  22  48 S32G45    29.95F WCI  28
CHADRON        CLEAR     42  26  53 S31G43    29.90F
ALLIANCE       CLEAR     33  21  61 S18       30.04S WCI  22
SIDNEY         CLEAR     32  21  64 S15       30.06F WCI  22
$$

...OBSERVATIONS IN NORTH CENTRAL NEBRASKA...

CITY           SKY/WX    TMP DP  RH WIND       PRES   REMARKS
VALENTINE      CLEAR     34  13  41 S14G22    30.15F WCI  25
THEDFORD       CLEAR     33  15  48 S17G28    30.18F WCI  22
AINSWORTH      PTCLDY    32  14  47 S17G24    30.18F WCI  20
O`NEILL        CLEAR     31  17  57 S15G22    30.29F WCI  20
ORD            CLEAR     30  14  51 SE13      30.30F WCI  20
BROKEN BOW       N/A    N/A N/A N/A MISG      30.26F
$$

...OBSERVATIONS IN SOUTHWEST NEBRASKA AND FAR NORTHEAST COLORADO...

CITY           SKY/WX    TMP DP  RH WIND       PRES   REMARKS
WRAY           FAIR      33  21  60 SE9       30.13F WCI  26
HOLYOKE        FAIR      34  21  60 SE12      30.12F WCI  25
IMPERIAL       CLEAR     29  14  53 SE10      30.17F WCI  20
OGALLALA       PTCLDY    32  17  52 E5        30.14F WCI  27
NORTH PLATTE   CLEAR     33  14  45 SE12      30.20F WCI  24
MCCOOK         CLEAR     29  15  56 E9        30.25F WCI  20
LEXINGTON      CLEAR     32  18  56 SE8       30.27F WCI  25
$$

...SOME WEATHER OBSERVATIONS FROM AROUND THE REGION...

CITY           SKY/WX    TMP DP  RH WIND       PRES   REMARKS
DENVER         PTCLDY    38  29  70 SW5       30.02F WCI  34
LARAMIE        CLEAR     40  22  48 SW14      30.05S WCI  32
CHEYENNE       PTCLDY    33  26  75 W5        30.01F WCI  29
SCOTTSBLUFF    PTCLDY    35  28  75 E12       30.01F WCI  27
RAPID CITY     CLEAR     38  28  67 SE16      29.87F WCI  29
PIERRE         PTCLDY    35  15  44 SE25G33   30.07F WCI  23
WINNER         FAIR      36  14  40 S16G25    30.17F WCI  26
SIOUX FALLS    PTCLDY    30  17  58 SE12      30.39F WCI  20
OMAHA          MOCLDY    30  19  63 SE6       30.47F WCI  24
GRAND ISLAND   FAIR      31  15  52 SE14      30.36F WCI  21
KANSAS CITY    PTCLDY    31  21  66 NE6       30.46S WCI  25
WICHITA        CLEAR     33  19  56 E7        30.42S WCI  27
HAYS           CLEAR     30  16  55 SE12      30.33F WCI  21
LIBERAL        PTCLDY    37  19  48 SE13      30.29F WCI  29
GOODLAND       PTCLDY    32  20  61 S26G33    30.15F WCI  18
$$



USA.gov is the U.S. government's official web portal to all federal, state and local government web resources and services.